Location: Key Biscayne
(25.6930°N, 80.1630°W)
Time: 11:49:15
(UTC-05:00)

Amateur Radio Satellites - All Passes

Search period start: 24 November 2017 11:19
Search period end: 25 November 2017 11:19
Location: Key Biscayne, 25.6930°N, 80.1630°W

Satellite Date Start Highest point End Downlink Frequencies (MHz)
Time Altitude Azimuth
LO-87 24 Nov 11:23:18 11:26:49 73° 101° (E) 11:30:18 145.935 - 145.965
POLYITAN 1 24 Nov 11:32:36 11:36:47 63° 77° (ENE) 11:40:58 437.675
BUGSAT 1 24 Nov 11:45:30 11:47:09 12° 70° (ENE) 11:48:48 437.445
JUGNU 24 Nov 11:46:41 11:51:24 24° 163° (SSE) 11:56:06 437.505
BEESAT 2 24 Nov 11:56:11 11:59:40 28° 60° (ENE) 12:03:05 435.950
QB50P2 24 Nov 11:56:16 12:00:24 53° 260° (W) 12:04:32 145.880/145.840
O/OREOS (USA 219) 24 Nov 12:03:28 12:07:39 36° 103° (ESE) 12:11:52 437.305
BEESAT 3 24 Nov 12:13:26 12:16:55 31° 249° (WSW) 12:20:20 437.485
ESTCUBE 1 24 Nov 12:20:14 12:24:19 34° 286° (WNW) 12:28:24 437.505/2401.250
Gurwin Techsat 1B 24 Nov 12:23:58 12:26:56 15° 68° (ENE) 12:29:55 435.225
VELOX 1 24 Nov 12:24:51 12:28:42 29° 98° (E) 12:32:30 145.980
DUCHIFAT 1 24 Nov 12:40:56 12:44:10 21° 263° (W) 12:47:25 145.980
FALCONSAT 3 24 Nov 12:44:44 12:48:12 37° 20° (NNE) 12:51:39 435.103
SPROUT 24 Nov 12:53:50 12:58:01 63° 283° (WNW) 13:02:11 437.525
EO-79 24 Nov 12:55:04 12:56:15 11° 265° (W) 12:57:27 145.935-145.965
NANOSAT C BR1 24 Nov 12:55:09 12:56:58 12° 264° (W) 12:58:48 145.865
AO-91 24 Nov 12:58:34 13:03:42 53° 75° (ENE) 13:08:57 145.960
DX 1 24 Nov 13:00:20 13:02:25 13° 96° (E) 13:04:30 434.975-435.025
Oscar 19 24 Nov 13:06:48 13:11:52 67° 76° (ENE) 13:16:56 437.125/150
AO-85 24 Nov 13:14:53 13:19:50 90° 65° (ENE) 13:25:05 145.980
BUGSAT 1 24 Nov 13:18:16 13:22:07 35° 261° (W) 13:25:58 437.445
NO-84 24 Nov 13:21:57 13:25:13 59° 309° (NW) 13:28:48 435.350 FM
UKube-1 24 Nov 13:33:33 13:36:46 20° 97° (E) 13:39:59 .
JUGNU 24 Nov 13:34:31 13:40:05 42° 172° (S) 13:45:36 437.505
BEESAT 2 24 Nov 13:34:59 13:37:03 14° 252° (WSW) 13:39:06 435.950
SRMSAT 24 Nov 13:39:17 13:42:25 15° 159° (SSE) 13:45:33 437.500
50 SAT 24 Nov 13:39:41 13:42:49 52° 101° (E) 13:45:55 437.505
O/OREOS (USA 219) 24 Nov 13:44:41 13:47:06 14° 295° (WNW) 13:49:33 437.305
AO-7 24 Nov 13:56:28 14:02:58 27° 64° (ENE) 14:09:29 .
Gurwin Techsat 1B 24 Nov 14:01:21 14:06:25 46° 260° (W) 14:11:31 435.225
VELOX 1 24 Nov 14:02:00 14:04:50 17° 289° (WNW) 14:07:38 145.980
M-CUBED/EXP-1 PRIME 24 Nov 14:04:14 14:07:30 39° 70° (ENE) 14:11:01 437.505
FALCONSAT 3 24 Nov 14:23:48 14:27:17 39° 212° (SSW) 14:30:44 435.103
ITUPSAT 1 24 Nov 14:31:29 14:31:54 10° 95° (E) 14:32:18 437.325
DX 1 24 Nov 14:34:39 14:38:35 34° 286° (WNW) 14:42:30 434.975-435.025
AO-91 24 Nov 14:37:42 14:40:15 13° 266° (W) 14:42:50 145.960
ITAMSAT 1 24 Nov 15:07:18 15:12:21 52° 75° (ENE) 15:17:25 435.822/435.867
UKube-1 24 Nov 15:09:18 15:12:37 22° 288° (WNW) 15:15:55 .
JUGNU 24 Nov 15:23:11 15:28:51 48° 182° (S) 15:34:29 437.505
SRMSAT 24 Nov 15:26:00 15:31:10 31° 166° (SSE) 15:36:19 437.500
MOZHAYETS 4 24 Nov 15:41:59 15:46:30 64° 284° (WNW) 15:51:02
AO-7 24 Nov 15:47:14 15:55:12 52° 257° (WSW) 16:03:14 .
BEESAT 24 Nov 15:52:51 15:57:34 71° 284° (WNW) 16:02:17 436.000
DOVE 4 24 Nov 15:52:56 15:56:41 21° 71° (ENE) 16:00:32 437.250
CUBESAT XI-V 24 Nov 16:03:37 16:08:02 41° 99° (E) 16:12:28 437.345
ITUPSAT 1 24 Nov 16:05:15 16:09:50 51° 285° (WNW) 16:14:26 437.325
YUBILEINY 24 Nov 16:05:20 16:13:24 38° 79° (E) 16:21:22 435.215
RS-15 24 Nov 16:07:52 16:16:06 21° 102° (ESE) 16:24:21 29.354- 29.394
ITAMSAT 1 24 Nov 16:49:51 16:51:57 12° 265° (W) 16:54:02 435.822/435.867
LilacSat-2 24 Nov 16:54:52 16:56:49 14° 72° (ENE) 16:58:46 437.200
XW-2F 24 Nov 16:55:50 16:57:04 11° 71° (ENE) 16:58:19 145.980 - 146.000
KKS-1 24 Nov 17:06:28 17:10:39 40° 100° (E) 17:14:48 437.445
CUTE-I 24 Nov 17:07:39 17:11:41 22° 70° (ENE) 17:15:43 437.470
JUGNU 24 Nov 17:12:16 17:17:35 36° 191° (SSW) 17:22:53 437.505
SRMSAT 24 Nov 17:14:23 17:20:02 47° 176° (S) 17:25:42 437.500
KAITUO 1B 24 Nov 17:15:46 17:18:07 16° 73° (ENE) 17:20:30 145.475/437.950
STARS 24 Nov 17:20:31 17:23:42 20° 97° (E) 17:26:53 437.465
DOVE 4 24 Nov 17:29:42 17:34:02 30° 263° (W) 17:38:35 437.250
HO-68 24 Nov 17:36:26 17:41:45 23° 66° (ENE) 17:47:04 435.675
XW-2D 24 Nov 17:39:19 17:42:59 60° 77° (ENE) 17:46:39 145.860 - 145.880
nSIGHT-1 24 Nov 17:42:28 17:44:56 20° 126° (SE) 17:47:23 .
CUBESAT XI-V 24 Nov 17:42:43 17:44:59 13° 290° (WNW) 17:47:14 437.345
NUDT-PHONESAT 24 Nov 17:52:13 17:55:47 55° 77° (ENE) 17:59:20 437.300
XW-2B 24 Nov 17:54:13 17:57:57 84° 259° (W) 18:01:41 145.730 - 145.750
YUBILEINY 24 Nov 18:02:15 18:09:52 34° 273° (W) 18:17:30 435.215
RS-15 24 Nov 18:15:04 18:27:18 79° 296° (WNW) 18:39:42 29.354- 29.394
CUTE 1.7 + AOD 2 24 Nov 18:15:22 18:19:03 30° 74° (ENE) 18:22:45 437.475
CUBEBUG 2 24 Nov 18:16:29 18:19:42 19° 72° (ENE) 18:22:50 437.445
XW-2C 24 Nov 18:20:30 18:23:50 31° 261° (W) 18:27:11 145.795 - 145.815
XW-2F 24 Nov 18:27:39 18:30:50 27° 262° (W) 18:34:01 145.980 - 146.000
LilacSat-2 24 Nov 18:27:47 18:30:48 23° 263° (W) 18:33:50 437.200
STRAND 1 24 Nov 18:33:39 18:35:39 12° 95° (E) 18:37:39 437.568
AAUSAT CUBESAT 2 24 Nov 18:35:37 18:36:44 11° 70° (ENE) 18:37:51 437.432
SEEDS 24 Nov 18:38:03 18:41:47 33° 75° (ENE) 18:45:33 437.485
ISS 24 Nov 18:38:16 18:41:32 86° 309° (NW) 18:44:49 437.550
KKS-1 24 Nov 18:45:01 18:46:46 12° 291° (WNW) 18:48:30 437.445
CUTE-I 24 Nov 18:46:41 18:51:26 32° 261° (W) 18:56:13 437.470
ZACube-1 24 Nov 18:49:18 18:49:46 10° 70° (ENE) 18:50:15 437.345
KAITUO 1B 24 Nov 18:49:18 18:51:53 18° 263° (W) 18:54:29 145.475/437.950
STARS 24 Nov 18:56:26 18:59:52 23° 288° (WNW) 19:03:19 437.465
JUGNU 24 Nov 19:02:18 19:06:11 18° 199° (SSW) 19:10:04 437.505
SRMSAT 24 Nov 19:03:21 19:08:59 46° 186° (S) 19:14:37 437.500
UWE-3 24 Nov 19:04:02 19:08:09 37° 76° (ENE) 19:12:10 435.000/436.395/437.385
nSIGHT-1 24 Nov 19:18:39 19:21:02 19° 318° (NW) 19:23:26 .
HO-68 24 Nov 19:22:03 19:28:58 51° 258° (WSW) 19:35:56 435.675
AO-73 24 Nov 19:34:08 19:38:04 35° 75° (ENE) 19:41:56 145.935
FO-29 24 Nov 19:34:10 19:38:54 18° 92° (E) 19:43:22 435.910
Oscar 11 24 Nov 19:46:08 19:49:55 31° 74° (ENE) 19:53:43 .
XW-2A 24 Nov 19:46:26 19:49:39 51° 259° (W) 19:52:53 145.665 - 145.685
CUBEBUG 2 24 Nov 19:52:09 19:56:03 27° 262° (W) 19:59:51 437.445
CUTE 1.7 + AOD 2 24 Nov 19:52:49 19:54:50 13° 265° (W) 19:56:52 437.475
AAUSAT CUBESAT 2 24 Nov 20:07:57 20:11:45 37° 261° (W) 20:15:35 437.432
STRAND 1 24 Nov 20:10:03 20:14:57 49° 286° (WNW) 20:19:51 437.568
SEEDS 24 Nov 20:15:57 20:17:28 12° 265° (W) 20:19:00 437.485
ZACube-1 24 Nov 20:21:28 20:25:37 43° 260° (W) 20:29:41 437.345
SO-50 24 Nov 20:25:24 20:29:51 85° 113° (ESE) 20:34:19 436.795
RS-15 24 Nov 20:34:06 20:41:49 18° 316° (NW) 20:49:33 29.354- 29.394
UWE-3 24 Nov 20:42:45 20:44:35 12° 264° (W) 20:46:24 435.000/436.395/437.385
SRMSAT 24 Nov 20:52:48 20:57:50 29° 195° (SSW) 21:02:54 437.500
UNISAT 6 24 Nov 21:01:52 21:03:35 12° 95° (E) 21:05:19 437.425
TIGRISAT 24 Nov 21:05:10 21:06:47 12° 95° (E) 21:08:25 435.000
AO-73 24 Nov 21:12:40 21:14:17 12° 265° (W) 21:15:52 145.935
FO-29 24 Nov 21:16:47 21:24:19 62° 286° (WNW) 21:31:07 435.910
Oscar 11 24 Nov 21:23:51 21:26:01 14° 265° (W) 21:28:11 .
DELFI C3 24 Nov 21:35:36 21:39:28 53° 260° (W) 21:43:21 145.870
NO-84 24 Nov 21:38:19 21:42:02 28° 47° (NE) 21:45:40 435.350 FM
EO-88 24 Nov 21:39:27 21:43:01 69° 77° (ENE) 21:46:37 145.990 - 145.960
Max Valier Satellite 24 Nov 21:50:45 21:54:16 46° 260° (W) 21:57:48 145.860
PCSat 24 Nov 22:07:29 22:11:23 21° 106° (ESE) 22:15:18 145.827
PRISM 24 Nov 22:20:14 22:24:04 36° 99° (E) 22:27:50 437.425
O/OREOS (USA 219) 24 Nov 22:22:23 22:25:37 19° 66° (ENE) 22:28:49 437.305
UNISAT 6 24 Nov 22:36:28 22:40:18 34° 285° (WNW) 22:44:09 437.425
TIGRISAT 24 Nov 22:39:39 22:43:29 34° 285° (WNW) 22:47:20 435.000
SRMSAT 24 Nov 22:44:02 22:46:36 13° 201° (SSW) 22:49:10 437.500
ESTCUBE 1 24 Nov 23:10:47 23:15:15 78° 76° (ENE) 23:19:43 437.505/2401.250
EO-79 24 Nov 23:11:11 23:12:40 12° 95° (E) 23:14:09 145.935-145.965
NO-84 24 Nov 23:15:53 23:19:12 22° 239° (WSW) 23:22:27 435.350 FM
LO-87 24 Nov 23:24:08 23:27:29 36° 261° (W) 23:30:49 145.935 - 145.965
POLYITAN 1 24 Nov 23:26:14 23:29:15 19° 97° (E) 23:32:16 437.675
SPROUT 24 Nov 23:38:54 23:42:41 31° 74° (ENE) 23:46:29 437.525
QB50P2 24 Nov 23:49:01 23:53:02 45° 100° (E) 23:57:03 145.880/145.840
PCSat 24 Nov 23:49:33 23:54:27 35° 297° (WNW) 23:59:23 145.827
AIST 2D 24 Nov 23:49:47 23:53:05 38° 284° (WNW) 23:56:23 435.315
PRISM 24 Nov 23:57:30 23:58:55 11° 290° (WNW) 00:00:18 437.425
O/OREOS (USA 219) 25 Nov 00:01:13 00:04:53 25° 258° (WSW) 00:08:32 437.305
BEESAT 3 25 Nov 00:18:52 00:21:02 14° 109° (ESE) 00:23:12 437.485
DUCHIFAT 1 25 Nov 00:31:39 00:35:48 72° 282° (WNW) 00:39:55 145.980
EO-79 25 Nov 00:44:38 00:48:26 34° 285° (WNW) 00:52:13 145.935-145.965
NANOSAT C BR1 25 Nov 00:44:54 00:48:48 39° 285° (WNW) 00:52:41 145.865
VELOX 1 25 Nov 00:49:16 00:53:35 51° 260° (W) 00:57:54 145.980
Gurwin Techsat 1B 25 Nov 00:49:20 00:50:48 11° 95° (E) 00:52:16 435.225
AO-91 25 Nov 00:59:22 01:01:50 16° 94° (E) 01:04:10 145.960
POLYITAN 1 25 Nov 01:01:40 01:04:51 21° 287° (WNW) 01:08:03 437.675
BUGSAT 1 25 Nov 01:07:34 01:11:31 59° 101° (E) 01:15:27 437.445
SPROUT 25 Nov 01:16:22 01:18:32 14° 264° (W) 01:20:42 437.525
DX 1 25 Nov 01:21:13 01:25:32 69° 76° (ENE) 01:29:53 434.975-435.025
RS-15 25 Nov 01:21:25 01:24:42 11° 35° (NE) 01:27:57 29.354- 29.394
Oscar 19 25 Nov 01:26:38 01:31:37 47° 100° (E) 01:36:35 437.125/150
50 SAT 25 Nov 01:30:03 01:33:14 64° 259° (W) 01:36:26 437.505
BEESAT 2 25 Nov 01:38:57 01:42:34 35° 112° (ESE) 01:46:14 435.950
AO-85 25 Nov 01:45:45 01:46:09 10° 108° (ESE) 01:46:31 145.980
UKube-1 25 Nov 01:54:15 01:58:33 77° 258° (WSW) 02:02:52 .
BEESAT 3 25 Nov 01:54:50 01:58:15 28° 300° (WNW) 02:01:42 437.485
AO-7 25 Nov 02:09:49 02:12:45 12° 96° (E) 02:15:40 .
Gurwin Techsat 1B 25 Nov 02:25:43 02:30:56 58° 285° (WNW) 02:36:07 435.225
AO-91 25 Nov 02:35:07 02:38:14 21° 289° (WNW) 02:41:08 145.960
MOZHAYETS 4 25 Nov 02:35:30 02:39:50 44° 75° (ENE) 02:44:09
ISS 25 Nov 02:49:03 02:51:48 25° 44° (NE) 02:54:32 437.550
BEESAT 25 Nov 02:50:51 02:55:27 51° 75° (ENE) 03:00:04 436.000
CUBESAT XI-V 25 Nov 03:00:11 03:02:55 16° 71° (ENE) 03:05:39 437.345
ITUPSAT 1 25 Nov 03:03:21 03:08:07 71° 75° (ENE) 03:12:52 437.325
Oscar 19 25 Nov 03:07:49 03:10:28 14° 292° (WNW) 03:13:06 437.125/150
BEESAT 2 25 Nov 03:18:35 03:20:21 13° 304° (NW) 03:22:07 435.950
AO-85 25 Nov 03:22:35 03:26:05 33° 299° (WNW) 03:29:39 145.980
M-CUBED/EXP-1 PRIME 25 Nov 03:23:14 03:27:50 65° 288° (WNW) 03:32:23 437.505
nSIGHT-1 25 Nov 03:26:49 03:29:59 69° 230° (SW) 03:33:08 .
ITAMSAT 1 25 Nov 03:28:38 03:33:24 37° 99° (E) 03:38:08 435.822/435.867
RS-15 25 Nov 03:28:57 03:40:21 56° 60° (ENE) 03:51:07 29.354- 29.394
AO-7 25 Nov 03:57:38 04:06:01 89° 295° (WNW) 04:14:24 .
KKS-1 25 Nov 03:58:01 04:00:22 14° 70° (ENE) 04:02:43 437.445
MOZHAYETS 4 25 Nov 04:15:54 04:17:03 11° 265° (W) 04:18:11
ISS 25 Nov 04:26:04 04:28:04 15° 235° (SW) 04:30:04 437.550
BEESAT 25 Nov 04:32:38 04:33:20 10° 265° (W) 04:34:02 436.000
CUBESAT XI-V 25 Nov 04:35:50 04:39:56 33° 262° (W) 04:44:04 437.345
YUBILEINY 25 Nov 04:55:17 05:03:44 57° 91° (E) 05:12:15 435.215
ITAMSAT 1 25 Nov 05:09:03 05:12:31 18° 291° (WNW) 05:15:57 435.822/435.867
XW-2D 25 Nov 05:21:27 05:22:59 12° 95° (E) 05:24:32 145.860 - 145.880
KKS-1 25 Nov 05:32:27 05:36:32 35° 261° (W) 05:40:39 437.445
CUTE-I 25 Nov 05:33:13 05:36:38 17° 96° (E) 05:40:01 437.470
FALCONSAT 3 25 Nov 05:33:52 05:36:24 18° 145° (SE) 05:38:57 435.103
XW-2B 25 Nov 05:35:20 05:38:03 18° 97° (E) 05:40:46 145.730 - 145.750
DOVE 4 25 Nov 05:36:38 05:41:28 53° 285° (WNW) 05:46:00 437.250
RS-15 25 Nov 05:42:36 05:51:55 30° 256° (WSW) 06:00:58 29.354- 29.394
STARS 25 Nov 05:43:32 05:47:57 76° 257° (WSW) 05:52:23 437.465
AO-7 25 Nov 05:53:48 05:57:39 14° 301° (WNW) 06:01:31 .
XW-2C 25 Nov 06:00:21 06:04:01 44° 100° (E) 06:07:41 145.795 - 145.815
XW-2F 25 Nov 06:06:46 06:10:28 50° 100° (E) 06:14:10 145.980 - 146.000
LilacSat-2 25 Nov 06:07:51 06:11:40 64° 100° (E) 06:15:30 437.200
CUTE 1.7 + AOD 2 25 Nov 06:10:46 06:11:29 10° 94° (E) 06:12:12 437.475
KAITUO 1B 25 Nov 06:26:44 06:30:31 75° 102° (ESE) 06:34:17 145.475/437.950
SEEDS 25 Nov 06:31:57 06:33:08 11° 95° (E) 06:34:20 437.485
SO-50 25 Nov 06:44:18 06:48:58 72° 245° (WSW) 06:53:41 436.795
XW-2D 25 Nov 06:53:49 06:57:05 27° 285° (WNW) 07:00:21 145.860 - 145.880
YUBILEINY 25 Nov 06:54:21 07:00:46 23° 284° (WNW) 07:07:17 435.215
HO-68 25 Nov 06:58:34 07:05:32 52° 102° (ESE) 07:12:26 435.675
UWE-3 25 Nov 07:03:01 07:05:04 13° 96° (E) 07:07:09 435.000/436.395/437.385
NUDT-PHONESAT 25 Nov 07:03:48 07:07:06 31° 285° (WNW) 07:10:25 437.300
XW-2B 25 Nov 07:09:21 07:12:01 18° 287° (WNW) 07:14:41 145.730 - 145.750
FALCONSAT 3 25 Nov 07:11:36 07:15:15 70° 336° (NNW) 07:18:55 435.103
CUTE-I 25 Nov 07:11:44 07:16:41 40° 287° (WNW) 07:21:37 437.470
XW-2A 25 Nov 07:16:32 07:18:37 15° 97° (E) 07:20:42 145.665 - 145.685
STRAND 1 25 Nov 07:17:15 07:22:24 83° 257° (WSW) 07:27:34 437.568
FO-29 25 Nov 07:19:45 07:25:04 26° 67° (ENE) 07:30:51 435.910
AO-73 25 Nov 07:31:27 07:33:21 13° 96° (E) 07:35:13 145.935
Oscar 11 25 Nov 07:43:20 07:44:44 11° 95° (E) 07:46:09 .
CUTE 1.7 + AOD 2 25 Nov 07:43:20 07:47:21 40° 285° (WNW) 07:51:21 437.475
CUBEBUG 2 25 Nov 07:50:17 07:54:22 64° 283° (WNW) 07:58:29 437.445
AAUSAT CUBESAT 2 25 Nov 07:57:30 08:01:38 61° 100° (E) 08:05:45 437.432
SEEDS 25 Nov 08:04:55 08:08:51 37° 285° (WNW) 08:12:46 437.485
ZACube-1 25 Nov 08:17:18 08:21:27 65° 101° (E) 08:25:40 437.345
UWE-3 25 Nov 08:37:52 08:41:29 29° 286° (WNW) 08:45:08 435.000/436.395/437.385
PCSat 25 Nov 08:45:24 08:50:16 33° 62° (ENE) 08:55:06 145.827
HO-68 25 Nov 08:47:32 08:52:43 22° 294° (WNW) 08:57:55 435.675
XW-2A 25 Nov 08:48:59 08:51:07 16° 287° (WNW) 08:53:15 145.665 - 145.685
FALCONSAT 3 25 Nov 08:51:45 08:54:41 22° 348° (NNW) 08:57:37 435.103
FO-29 25 Nov 09:03:36 09:09:38 42° 263° (W) 09:16:25 435.910
AO-73 25 Nov 09:05:48 09:09:31 32° 285° (WNW) 09:13:18 145.935
Oscar 11 25 Nov 09:16:53 09:20:54 38° 285° (WNW) 09:24:55 .
EO-88 25 Nov 09:17:57 09:19:04 11° 95° (E) 09:20:11 145.990 - 145.960
DELFI C3 25 Nov 09:20:27 09:24:03 33° 99° (E) 09:27:37 145.870
UNISAT 6 25 Nov 09:26:07 09:30:41 71° 77° (ENE) 09:35:09 437.425
Max Valier Satellite 25 Nov 09:28:33 09:31:41 26° 98° (E) 09:34:49 145.860
TIGRISAT 25 Nov 09:29:10 09:33:43 70° 78° (ENE) 09:38:11 435.000
JUGNU 25 Nov 09:46:05 09:47:39 11° 158° (SSE) 09:49:14 437.505
AIST 2D 25 Nov 10:16:34 10:18:53 17° 74° (ENE) 10:21:13 435.315
BEESAT 3 25 Nov 10:20:11 10:21:51 12° 56° (NE) 10:23:31 437.485
PCSat 25 Nov 10:29:19 10:33:22 22° 254° (WSW) 10:37:24 145.827
FALCONSAT 3 25 Nov 10:31:54 10:34:30 18° 4° (N) 10:37:06 435.103
QB50P2 25 Nov 10:35:35 10:37:16 12° 70° (ENE) 10:38:57 145.880/145.840
PRISM 25 Nov 10:35:45 10:39:42 48° 259° (W) 10:43:43 437.425
EO-88 25 Nov 10:49:33 10:52:38 26° 285° (WNW) 10:55:43 145.990 - 145.960
DELFI C3 25 Nov 10:57:07 10:58:24 11° 289° (WNW) 10:59:39 145.870
LO-87 25 Nov 10:58:45 11:01:49 27° 98° (E) 11:04:51 145.935 - 145.965
Max Valier Satellite 25 Nov 11:03:48 11:05:10 12° 288° (WNW) 11:06:34 145.860
